[[{"header":{"parameterUnit":"m.s-1","parameterCategory":1,"la1":30.2991,"la2":30.254,"lo1":-89.0895,"lo2":-89.0444,"dy":0.0017,"dx":0.0017,"nx":28,"ny":28,"refTime":"2024-07-17T21:00:00:Z","depth":0,"parameterNumber":2,"parameterNumberName":"U-component_of_WINDS"},"data":[0,0,0,0,0,0,0,0,0,0,0,0,0,0,0,0,0,0,0,0,0,0,0,0,0,0,0,0,0,0,0,0,0,0,0,0,0,0,0,0,0,0,0,0,0,0,0,0,0,0,0,0,0,0,0,0,0,0,2.108,2.1081,0,2.1147,2.1148,2.1148,2.1146,2.1145,2.1144,2.1143,2.1208,2.1211,2.1213,0,0,0,0,0,0,0,0,0,0,0,0,0,2.0948,2.0951,2.108,2.1081,2.1082,2.1147,2.1148,2.1149,2.1146,2.1145,2.1144,2.1143,2.1208,2.1211,2.1214,0,0,0,0,0,0,0,0,0,0,0,0,0,2.1009,2.0952,2.108,2.1089,2.109,2.1147,2.1148,2.1149,2.1146,2.1145,2.1144,2.1142,2.1207,2.121,2.1214,2.1265,0,0,2.1226,2.1228,0,0,0,0,0,0,0,0,2.1006,2.1014,2.1087,2.1088,2.109,2.1137,2.1125,2.1188,2.1147,2.1125,2.1143,2.1142,2.1185,2.1191,2.1206,2.1268,2.1271,2.1226,2.1229,2.123,2.1231,0,0,0,0,0,0,0,2.1002,2.1011,2.1106,2.1088,2.109,2.1088,2.1095,2.1137,2.1162,2.1127,2.1127,2.1135,2.1186,2.1203,2.1208,2.1272,2.1226,2.123,2.1232,2.1233,2.1379,2.138,0,0,0,0,0,0,2.0996,2.1008,2.1104,2.1108,2.1044,2.1092,2.11,2.1123,2.1162,2.1166,2.1136,2.1135,2.1197,2.1203,2.121,2.1272,2.123,2.1234,2.1236,2.1377,2.1379,2.1381,0,0,0,0,0,0,2.0993,2.1005,2.1102,2.1058,2.107,2.1096,2.1122,2.1125,2.1142,2.1169,2.1173,2.1148,2.1196,2.1205,2.1252,2.1274,2.1236,2.1239,2.1375,2.1378,2.138,2.1396,0,0,0,0,0,0,2.0989,2.1004,2.1024,2.1059,2.1073,2.1143,2.1123,2.1127,2.1149,2.1147,2.1181,2.1186,2.1195,2.1246,2.1256,2.1279,2.1242,2.1374,2.1377,2.1379,2.1394,2.1399,2.1403,0,0,0,0,0,2.0985,2.1025,2.1025,2.1037,2.1099,2.1144,2.1152,2.1164,2.1151,2.1171,2.1188,2.1184,2.1271,2.1251,2.1262,2.1286,2.1372,2.1376,2.1379,2.1391,2.1398,2.1403,0,0,0,0,0,0,2.0991,2.103,2.103,2.1083,2.1111,2.1144,2.1169,2.117,2.1201,2.1198,2.121,2.1218,2.1265,2.128,2.1258,2.1338,2.1319,2.1325,2.1325,2.1331,2.1336,2.133,2.1245,0,0,0,0,0,2.0999,2.1034,2.1065,2.1109,2.1123,2.1144,2.1164,2.1171,2.1199,2.121,2.1231,2.1258,2.1291,2.1312,2.1344,2.1397,2.1403,2.1419,2.1423,2.1427,2.1431,2.1459,2.1466,2.1392,2.1392,2.1392,0,0,2.1015,2.1041,2.1062,2.1111,2.1133,2.1168,2.1154,2.1191,2.1216,2.1216,2.1261,2.1278,2.1308,2.1358,2.1381,2.1372,2.1454,2.1432,2.1434,2.1437,2.1463,2.147,2.1476,2.1395,2.1394,2.1394,0,0,2.1062,2.1086,2.1124,2.1147,2.1181,2.1195,2.1204,2.1237,2.1248,2.1295,2.1295,2.1325,2.1382,2.1403,2.1422,2.1478,2.1475,2.1488,2.1511,2.1538,2.1544,2.1549,2.1568,2.1574,2.1492,2.1492,2.1492,0,2.1077,2.113,2.1144,2.1181,2.1203,2.1205,2.1244,2.1265,2.1307,2.1321,2.1312,2.1383,2.1404,2.1458,2.1472,2.1487,2.1497,2.1483,2.1542,2.1548,2.1553,2.157,2.1577,2.1494,2.1493,2.1493,2.1493,0,2.1147,2.1184,2.1211,2.1252,2.1277,2.1315,2.1333,2.1356,2.1361,2.1375,2.1422,2.1448,2.1484,2.1498,2.1503,2.1553,2.1547,2.154,2.1522,2.1561,2.1577,2.1584,2.1495,2.1495,2.1494,2.1494,0,0,2.1198,2.1247,2.1257,2.1276,2.1314,2.1342,2.1379,2.1417,2.1435,2.1465,2.1496,2.1544,2.1538,2.1559,2.1567,2.159,2.1631,2.158,2.1581,2.1588,2.1687,2.169,2.1698,2.1631,2.1632,2.1633,2.1684,0,2.1247,2.1315,2.1329,2.1387,2.142,2.1424,2.1457,2.1483,2.1498,2.1528,2.1544,2.1577,2.1568,2.158,2.1604,2.1621,2.1651,2.1618,2.1658,2.1659,2.1649,2.1707,2.1711,2.1757,2.169,2.1692,2.1692,0,2.1314,2.1345,2.1407,2.1441,2.1455,2.1485,2.1519,2.1548,2.1578,2.1587,2.1611,2.1616,2.1654,2.1636,2.1688,2.1665,2.1683,2.1694,2.1696,2.1698,2.1677,2.1709,2.1772,2.1779,2.1703,2.1702,2.1701,0,2.1343,2.1401,2.1446,2.1462,2.1502,2.1522,2.154,2.1569,2.159,2.162,2.1634,2.1668,2.1687,2.1713,2.1726,2.1712,2.1777,2.176,2.1784,2.1784,2.1796,2.1795,2.1861,2.181,2.181,2.181,2.181,0,2.1396,2.1433,2.1459,2.1486,2.1528,2.1543,2.1584,2.1601,2.1626,2.1656,2.1662,2.1689,2.1706,2.1736,2.1747,2.1788,2.1797,2.1804,2.1806,2.1803,2.1801,2.1813,2.1809,2.1812,2.1812,2.1811,2.1811,0,2.1434,2.1454,2.1502,2.1537,2.1546,2.1575,2.1605,2.1631,2.1646,2.1683,2.1693,2.1717,2.1752,2.1769,2.1813,2.182,2.1866,2.1867,2.1856,2.1856,2.1879,2.1876,2.1953,2.1963,2.1908,2.1908,2.1909,0,2.1466,2.1495,2.1533,2.1554,2.1572,2.1605,2.1627,2.1644,2.1666,2.1702,2.1724,2.176,2.1789,2.1845,2.1866,2.1899,2.19,2.1924,2.1904,2.19,2.1898,2.1895,2.1898,2.1927,2.1928,2.1928,2.1929,0,2.1519,2.1527,2.1559,2.1595,2.1621,2.165,2.1678,2.1694,2.1715,2.174,2.1777,2.1799,2.1845,2.188,2.1915,2.1932,2.1933,2.1935,2.1942,2.1938,2.1929,2.1933,2.1864,2.1933,2.1932,2.1932,2.1932,2.1932,2.1554,2.158,2.161,2.1646,2.1669,2.1695,2.1721,2.174,2.1771,2.1809,2.1817,2.1856,2.1885,2.1932,2.195,2.198,2.1974,2.1985,2.1987,2.1989,2.1989,2.1927,2.1987,2.1987,2.1986,2.1986,2.1986,0,2.1606,2.1626,2.1659,2.1698,2.1726,2.1727,2.1758,2.178,2.1815,2.1842,2.1871,2.1913,2.1947,2.1971,2.2005,2.2025,2.2026,2.2033,2.2031,2.2034,2.1993,2.1983,2.2031,2.2031,2.2031,2.2031,2.2031,2.2031,2.1636,2.1679,2.1691,2.1745,2.1765,2.1804,2.1821,2.1845,2.1867,2.1914,2.1942,2.1958,2.1984,2.202,2.2051,2.2057,2.2069,2.2076,2.2081,2.2042,2.2037,2.2033,2.2023,2.2078,2.2079,2.2119,2.212,2.212]},{"header":{"parameterUnit":"m.s-1","parameterCategory":1,"la1":30.2991,"la2":30.254,"lo1":-89.0895,"lo2":-89.0444,"dy":0.0017,"dx":0.0017,"nx":28,"ny":28,"refTime":"2024-07-17T21:00:00:Z","depth":0,"parameterNumber":3,"parameterNumberName":"V-component_of_WINDS"},"data":[0,0,0,0,0,0,0,0,0,0,0,0,0,0,0,0,0,0,0,0,0,0,0,0,0,0,0,0,0,0,0,0,0,0,0,0,0,0,0,0,0,0,0,0,0,0,0,0,0,0,0,0,0,0,0,0,0,0,-0.1695,-0.1695,0,-0.1637,-0.1637,-0.1636,-0.162,-0.162,-0.1621,-0.1621,-0.1558,-0.1556,-0.1554,0,0,0,0,0,0,0,0,0,0,0,0,0,-0.1788,-0.1787,-0.1696,-0.1695,-0.1694,-0.1638,-0.1637,-0.1636,-0.162,-0.162,-0.1621,-0.1621,-0.1559,-0.1557,-0.1554,0,0,0,0,0,0,0,0,0,0,0,0,0,-0.1741,-0.1786,-0.1696,-0.1679,-0.1677,-0.1638,-0.1637,-0.1636,-0.162,-0.162,-0.1621,-0.1621,-0.156,-0.1557,-0.1554,-0.1525,0,0,-0.1545,-0.1543,0,0,0,0,0,0,0,0,-0.1744,-0.1738,-0.1682,-0.168,-0.1678,-0.1637,-0.1647,-0.1599,-0.162,-0.1642,-0.1621,-0.1622,-0.1584,-0.1579,-0.1567,-0.1522,-0.152,-0.1545,-0.1543,-0.1541,-0.1541,0,0,0,0,0,0,0,-0.1747,-0.174,-0.1672,-0.1682,-0.1679,-0.1674,-0.1667,-0.1637,-0.161,-0.164,-0.1638,-0.1632,-0.1583,-0.157,-0.1565,-0.1519,-0.1545,-0.1542,-0.154,-0.1539,-0.1447,-0.1446,0,0,0,0,0,0,-0.1754,-0.1743,-0.1674,-0.1671,-0.1713,-0.1672,-0.1665,-0.1649,-0.1611,-0.1605,-0.1632,-0.1631,-0.1574,-0.1569,-0.1563,-0.1526,-0.1541,-0.1539,-0.1537,-0.1447,-0.1447,-0.1446,0,0,0,0,0,0,-0.1756,-0.1748,-0.1677,-0.1706,-0.1697,-0.1669,-0.1652,-0.1648,-0.1635,-0.1605,-0.1599,-0.1624,-0.1575,-0.1567,-0.1535,-0.1523,-0.1537,-0.1535,-0.1448,-0.1447,-0.1446,-0.1452,0,0,0,0,0,0,-0.1758,-0.1749,-0.1738,-0.1706,-0.1695,-0.1651,-0.1652,-0.1646,-0.163,-0.1629,-0.1596,-0.159,-0.1574,-0.1539,-0.1532,-0.152,-0.1532,-0.1449,-0.1448,-0.1446,-0.1453,-0.1452,-0.1451,0,0,0,0,0,-0.1762,-0.1742,-0.1738,-0.173,-0.1682,-0.165,-0.1644,-0.1627,-0.163,-0.1618,-0.1599,-0.1592,-0.1526,-0.1536,-0.1528,-0.1514,-0.145,-0.1448,-0.1447,-0.1454,-0.1452,-0.1451,0,0,0,0,0,0,-0.1773,-0.1738,-0.1733,-0.1702,-0.1679,-0.1648,-0.1633,-0.1626,-0.1601,-0.1601,-0.158,-0.1572,-0.1541,-0.1524,-0.1536,-0.1484,-0.1488,-0.1484,-0.1496,-0.1494,-0.1493,-0.1497,-0.153,0,0,0,0,0,-0.1772,-0.175,-0.172,-0.1696,-0.1685,-0.1661,-0.1646,-0.1635,-0.161,-0.16,-0.1578,-0.1553,-0.1526,-0.1509,-0.1484,-0.1451,-0.1442,-0.1437,-0.1436,-0.1435,-0.1432,-0.1412,-0.1409,-0.1441,-0.1441,-0.1441,0,0,-0.1769,-0.1747,-0.1734,-0.1697,-0.1678,-0.1654,-0.1653,-0.1628,-0.1609,-0.1596,-0.1564,-0.1547,-0.1517,-0.1484,-0.1469,-0.147,-0.1422,-0.1433,-0.1433,-0.143,-0.1411,-0.1408,-0.1405,-0.144,-0.144,-0.144,0,0,-0.1752,-0.1734,-0.1711,-0.1692,-0.1664,-0.1648,-0.1643,-0.1612,-0.16,-0.1568,-0.1557,-0.1534,-0.1489,-0.1469,-0.1452,-0.1426,-0.1418,-0.1418,-0.1412,-0.1392,-0.139,-0.1388,-0.1377,-0.1374,-0.1416,-0.1416,-0.1416,0,-0.1752,-0.1717,-0.17,-0.1676,-0.1659,-0.1646,-0.1622,-0.1604,-0.1568,-0.1557,-0.1559,-0.1502,-0.1481,-0.1442,-0.1436,-0.1424,-0.1415,-0.1422,-0.1392,-0.1389,-0.1387,-0.1376,-0.1373,-0.1416,-0.1416,-0.1416,-0.1416,0,-0.1718,-0.1693,-0.1678,-0.1645,-0.1626,-0.1602,-0.1581,-0.1564,-0.1554,-0.1538,-0.1504,-0.1479,-0.1447,-0.1438,-0.1428,-0.1397,-0.1398,-0.1396,-0.1399,-0.1384,-0.1374,-0.137,-0.1416,-0.1416,-0.1416,-0.1416,0,0,-0.1706,-0.1663,-0.1658,-0.1642,-0.1609,-0.1589,-0.1564,-0.1534,-0.1519,-0.1494,-0.1472,-0.1434,-0.1432,-0.1413,-0.14,-0.1384,-0.1363,-0.1383,-0.1382,-0.1379,-0.1326,-0.1327,-0.1323,-0.1358,-0.1357,-0.1357,-0.1328,0,-0.1684,-0.1639,-0.1623,-0.1586,-0.1562,-0.1549,-0.1527,-0.1504,-0.1487,-0.1464,-0.1446,-0.1419,-0.1419,-0.1407,-0.139,-0.1369,-0.1352,-0.1371,-0.1335,-0.1334,-0.1342,-0.1318,-0.1319,-0.1293,-0.1324,-0.1324,-0.1323,0,-0.1652,-0.1628,-0.1589,-0.1558,-0.1547,-0.1527,-0.1498,-0.1476,-0.1449,-0.1438,-0.1417,-0.1405,-0.1377,-0.1382,-0.1342,-0.1355,-0.1339,-0.1327,-0.1325,-0.132,-0.1327,-0.1311,-0.1285,-0.1281,-0.1317,-0.1317,-0.1318,0,-0.1646,-0.1603,-0.1574,-0.1561,-0.1524,-0.1511,-0.1495,-0.1468,-0.145,-0.1424,-0.1412,-0.1383,-0.1366,-0.1343,-0.1323,-0.1329,-0.1284,-0.1288,-0.1273,-0.1273,-0.1263,-0.1264,-0.1233,-0.1255,-0.1255,-0.1255,-0.1255,0,-0.1623,-0.1599,-0.1571,-0.1552,-0.1524,-0.1506,-0.1478,-0.1461,-0.1437,-0.1414,-0.1401,-0.138,-0.1356,-0.1331,-0.1315,-0.1283,-0.1276,-0.1265,-0.1261,-0.1265,-0.1267,-0.1254,-0.1255,-0.1254,-0.1254,-0.1254,-0.1255,0,-0.1611,-0.1591,-0.1558,-0.1526,-0.1518,-0.1498,-0.147,-0.1451,-0.1435,-0.1406,-0.1398,-0.1371,-0.1341,-0.1319,-0.128,-0.1269,-0.1234,-0.1231,-0.1244,-0.1241,-0.1227,-0.1228,-0.1186,-0.1178,-0.1207,-0.1206,-0.1206,0,-0.1597,-0.1578,-0.1544,-0.1528,-0.1513,-0.1487,-0.1469,-0.145,-0.1431,-0.1398,-0.1383,-0.1352,-0.1326,-0.1278,-0.1254,-0.1224,-0.1218,-0.1206,-0.1214,-0.1219,-0.1217,-0.1218,-0.1215,-0.1204,-0.1204,-0.1204,-0.1204,0,-0.1573,-0.1564,-0.154,-0.1511,-0.149,-0.1467,-0.1443,-0.143,-0.1406,-0.1386,-0.1355,-0.1335,-0.1295,-0.1264,-0.1231,-0.1213,-0.1204,-0.1202,-0.1196,-0.12,-0.1208,-0.1202,-0.1239,-0.1202,-0.1203,-0.1203,-0.1203,-0.1203,-0.1559,-0.1541,-0.1514,-0.1487,-0.1467,-0.1445,-0.1425,-0.1406,-0.138,-0.1347,-0.1336,-0.1304,-0.1276,-0.1231,-0.1212,-0.1186,-0.1186,-0.1179,-0.1177,-0.1175,-0.1174,-0.1213,-0.118,-0.118,-0.118,-0.118,-0.118,0,-0.1534,-0.1516,-0.1491,-0.1458,-0.1436,-0.143,-0.1403,-0.1385,-0.1357,-0.1332,-0.1307,-0.127,-0.124,-0.1214,-0.1182,-0.1165,-0.116,-0.1157,-0.1158,-0.1153,-0.1176,-0.1184,-0.1162,-0.1162,-0.1162,-0.1162,-0.1162,-0.1162,-0.1518,-0.1487,-0.1475,-0.1434,-0.1415,-0.1384,-0.1369,-0.1348,-0.1328,-0.1288,-0.1263,-0.1247,-0.122,-0.1186,-0.1157,-0.115,-0.1139,-0.1137,-0.1128,-0.115,-0.1152,-0.1154,-0.1161,-0.1135,-0.1135,-0.1107,-0.1107,-0.1107]}]]